[[{"header":{"parameterUnit":"m.s-1","parameterCategory":1,"la1":30.2991,"la2":30.254,"lo1":-89.0895,"lo2":-89.0444,"dy":0.0017,"dx":0.0017,"nx":28,"ny":28,"refTime":"2025-11-17T03:00:00:Z","depth":0,"parameterNumber":2,"parameterNumberName":"U-component_of_WINDS"},"data":[0,0,0,0,0,0,0,0,0,0,0,0,0,0,0,0,0,0,0,0,0,0,0,0,0,0,0,0,0,0,0,0,0,0,0,0,0,0,0,0,0,0,0,0,0,0,0,0,0,0,0,0,0,0,0,0,0,0,-1.3905,-1.3905,0,-1.389,-1.389,-1.389,-1.3862,-1.3861,-1.3861,-1.386,-1.3846,-1.3846,-1.3846,0,0,0,0,0,0,0,0,0,0,0,0,0,-1.3912,-1.3912,-1.3905,-1.3905,-1.3905,-1.389,-1.389,-1.389,-1.3862,-1.3861,-1.386,-1.386,-1.3846,-1.3846,-1.3846,0,0,0,0,0,0,0,0,0,0,0,0,0,-1.3904,-1.3912,-1.3905,-1.3889,-1.3887,-1.389,-1.389,-1.389,-1.3862,-1.3861,-1.386,-1.386,-1.3846,-1.3846,-1.3846,-1.3864,0,0,-1.3847,-1.3847,0,0,0,0,0,0,0,0,-1.3904,-1.3904,-1.3892,-1.389,-1.3888,-1.3877,-1.3887,-1.3881,-1.3862,-1.3872,-1.386,-1.3859,-1.3857,-1.3856,-1.3855,-1.3863,-1.3863,-1.3847,-1.3847,-1.3847,-1.3847,0,0,0,0,0,0,0,-1.3905,-1.3904,-1.3899,-1.3891,-1.3889,-1.3883,-1.3881,-1.3886,-1.3869,-1.3871,-1.3869,-1.3867,-1.3856,-1.3855,-1.3855,-1.3862,-1.3847,-1.3847,-1.3847,-1.3847,-1.3885,-1.3886,0,0,0,0,0,0,-1.3908,-1.3905,-1.39,-1.3899,-1.3895,-1.3884,-1.3882,-1.3881,-1.3869,-1.3866,-1.3868,-1.3866,-1.3855,-1.3855,-1.3854,-1.3874,-1.3847,-1.3847,-1.3848,-1.3884,-1.3885,-1.3886,0,0,0,0,0,0,-1.3908,-1.3907,-1.39,-1.3901,-1.39,-1.3884,-1.3885,-1.3882,-1.3881,-1.3867,-1.3864,-1.387,-1.3855,-1.3854,-1.3862,-1.3873,-1.3848,-1.3848,-1.3883,-1.3885,-1.3886,-1.3914,0,0,0,0,0,0,-1.3908,-1.3908,-1.3914,-1.3902,-1.39,-1.3907,-1.3885,-1.3882,-1.3881,-1.3878,-1.3868,-1.3866,-1.3854,-1.3862,-1.3862,-1.3873,-1.3848,-1.3882,-1.3884,-1.3885,-1.3912,-1.3916,-1.392,0,0,0,0,0,-1.3909,-1.3922,-1.3914,-1.3913,-1.3907,-1.3908,-1.3907,-1.3893,-1.3882,-1.3888,-1.3879,-1.3866,-1.3872,-1.3863,-1.3863,-1.3874,-1.3881,-1.3883,-1.3885,-1.391,-1.3915,-1.392,0,0,0,0,0,0,-1.3936,-1.392,-1.3911,-1.3921,-1.3916,-1.3903,-1.391,-1.3899,-1.3897,-1.3895,-1.3878,-1.3876,-1.3886,-1.3881,-1.3871,-1.3891,-1.3875,-1.3877,-1.3894,-1.3898,-1.3902,-1.3903,-1.3848,0,0,0,0,0,-1.3943,-1.3945,-1.3931,-1.3942,-1.394,-1.3926,-1.3926,-1.3916,-1.391,-1.3908,-1.39,-1.3895,-1.3896,-1.3897,-1.3897,-1.3912,-1.3909,-1.392,-1.3924,-1.3927,-1.3929,-1.3937,-1.3941,-1.3893,-1.3893,-1.3893,0,0,-1.3958,-1.395,-1.3952,-1.3947,-1.3942,-1.3945,-1.3924,-1.3928,-1.393,-1.3908,-1.3915,-1.391,-1.3904,-1.3915,-1.3919,-1.3911,-1.3942,-1.3929,-1.3932,-1.3932,-1.3939,-1.3944,-1.3948,-1.3894,-1.3894,-1.3894,0,0,-1.3986,-1.398,-1.3988,-1.3984,-1.3977,-1.3967,-1.397,-1.3959,-1.3954,-1.3961,-1.3945,-1.3948,-1.395,-1.3946,-1.3945,-1.3974,-1.3962,-1.3975,-1.3995,-1.4003,-1.4006,-1.401,-1.402,-1.4024,-1.3977,-1.3977,-1.3977,0,-1.4006,-1.4009,-1.3994,-1.3999,-1.3998,-1.3978,-1.3987,-1.3984,-1.3977,-1.3977,-1.3968,-1.397,-1.3965,-1.3975,-1.3983,-1.3982,-1.3985,-1.3975,-1.4007,-1.401,-1.4013,-1.4023,-1.4027,-1.3979,-1.3978,-1.3978,-1.3978,0,-1.4033,-1.4036,-1.4043,-1.4037,-1.4037,-1.4044,-1.4031,-1.4032,-1.4023,-1.4015,-1.4023,-1.4016,-1.4015,-1.4017,-1.4007,-1.4026,-1.4021,-1.401,-1.3993,-1.4019,-1.4028,-1.4032,-1.3981,-1.398,-1.398,-1.3979,0,0,-1.4077,-1.4063,-1.4066,-1.4064,-1.4055,-1.4057,-1.4064,-1.4062,-1.4064,-1.4061,-1.4066,-1.4069,-1.4059,-1.4058,-1.4048,-1.4055,-1.4079,-1.4043,-1.4042,-1.4049,-1.41,-1.4108,-1.4113,-1.4071,-1.4072,-1.4072,-1.4101,0,-1.4103,-1.4112,-1.41,-1.4112,-1.4115,-1.4098,-1.4104,-1.41,-1.4093,-1.4095,-1.4088,-1.409,-1.4076,-1.4076,-1.4082,-1.4075,-1.4089,-1.4073,-1.4076,-1.4077,-1.4078,-1.4118,-1.4126,-1.4153,-1.4104,-1.4105,-1.4105,0,-1.4134,-1.4132,-1.4145,-1.4136,-1.4137,-1.4142,-1.4141,-1.4143,-1.4138,-1.4133,-1.4132,-1.4121,-1.4128,-1.4112,-1.4122,-1.4111,-1.4112,-1.4109,-1.411,-1.4109,-1.4092,-1.4118,-1.4161,-1.4165,-1.411,-1.411,-1.411,0,-1.4164,-1.4165,-1.4173,-1.4171,-1.4162,-1.4166,-1.4162,-1.4157,-1.4157,-1.4157,-1.4157,-1.4157,-1.4157,-1.4158,-1.4147,-1.4137,-1.4159,-1.4142,-1.4155,-1.4155,-1.4159,-1.4159,-1.4203,-1.4161,-1.4161,-1.4161,-1.4161,0,-1.4194,-1.4202,-1.4186,-1.4191,-1.4201,-1.4187,-1.4197,-1.4192,-1.4188,-1.4192,-1.4178,-1.4182,-1.4168,-1.4171,-1.4164,-1.4173,-1.4173,-1.417,-1.4167,-1.4171,-1.4171,-1.417,-1.4168,-1.4162,-1.4162,-1.4162,-1.4161,0,-1.4229,-1.4218,-1.4226,-1.4217,-1.4215,-1.4222,-1.4214,-1.4219,-1.4212,-1.4218,-1.4218,-1.4208,-1.4211,-1.4201,-1.4202,-1.4197,-1.4211,-1.4206,-1.4212,-1.4211,-1.4224,-1.4223,-1.4269,-1.4274,-1.4229,-1.423,-1.423,0,-1.4248,-1.4254,-1.4246,-1.4247,-1.4244,-1.4247,-1.4248,-1.4235,-1.4237,-1.4233,-1.4238,-1.424,-1.4241,-1.4247,-1.424,-1.4242,-1.4237,-1.4253,-1.4237,-1.424,-1.4237,-1.4236,-1.4237,-1.4256,-1.4256,-1.4257,-1.4257,0,-1.4284,-1.4278,-1.4279,-1.4279,-1.428,-1.4279,-1.4277,-1.428,-1.4266,-1.4269,-1.4272,-1.4273,-1.4275,-1.4277,-1.4278,-1.4275,-1.4264,-1.4262,-1.4265,-1.4268,-1.4272,-1.427,-1.4221,-1.4261,-1.4261,-1.426,-1.426,-1.426,-1.4311,-1.4316,-1.4311,-1.4313,-1.431,-1.4309,-1.4313,-1.4307,-1.4309,-1.431,-1.4303,-1.4308,-1.4305,-1.4304,-1.4302,-1.4307,-1.4299,-1.4304,-1.4305,-1.4306,-1.4308,-1.4272,-1.4307,-1.4307,-1.4306,-1.4306,-1.4306,0,-1.4345,-1.4342,-1.4344,-1.4342,-1.4344,-1.4334,-1.4331,-1.4334,-1.4338,-1.4336,-1.4337,-1.4341,-1.4344,-1.4338,-1.434,-1.4345,-1.434,-1.4346,-1.4345,-1.4345,-1.4314,-1.4311,-1.435,-1.435,-1.435,-1.435,-1.435,-1.435,-1.4363,-1.4371,-1.4366,-1.4373,-1.437,-1.4374,-1.4374,-1.4373,-1.4371,-1.4376,-1.4379,-1.4375,-1.4371,-1.4373,-1.4376,-1.4374,-1.4375,-1.4383,-1.4379,-1.4351,-1.4347,-1.4343,-1.434,-1.4383,-1.4383,-1.4409,-1.4409,-1.441]},{"header":{"parameterUnit":"m.s-1","parameterCategory":1,"la1":30.2991,"la2":30.254,"lo1":-89.0895,"lo2":-89.0444,"dy":0.0017,"dx":0.0017,"nx":28,"ny":28,"refTime":"2025-11-17T03:00:00:Z","depth":0,"parameterNumber":3,"parameterNumberName":"V-component_of_WINDS"},"data":[0,0,0,0,0,0,0,0,0,0,0,0,0,0,0,0,0,0,0,0,0,0,0,0,0,0,0,0,0,0,0,0,0,0,0,0,0,0,0,0,0,0,0,0,0,0,0,0,0,0,0,0,0,0,0,0,0,0,1.0895,1.0895,0,1.0888,1.0888,1.0888,1.094,1.0942,1.0943,1.0945,1.093,1.0929,1.0927,0,0,0,0,0,0,0,0,0,0,0,0,0,1.0948,1.0947,1.0895,1.0895,1.0895,1.0888,1.0888,1.0888,1.094,1.0942,1.0944,1.0945,1.0931,1.0929,1.0927,0,0,0,0,0,0,0,0,0,0,0,0,0,1.0931,1.0946,1.0895,1.092,1.0922,1.0888,1.0888,1.0888,1.094,1.0942,1.0944,1.0946,1.0932,1.0929,1.0927,1.0865,0,0,1.0918,1.0917,0,0,0,0,0,0,0,0,1.0932,1.0929,1.0916,1.0918,1.0921,1.0917,1.0902,1.088,1.0939,1.0933,1.0945,1.0947,1.0924,1.0922,1.0916,1.0865,1.0864,1.0918,1.0917,1.0915,1.0915,0,0,0,0,0,0,0,1.0933,1.093,1.0892,1.0916,1.0919,1.093,1.093,1.0898,1.0915,1.0933,1.0937,1.0936,1.0925,1.0918,1.0916,1.0864,1.0918,1.0916,1.0914,1.0913,1.0763,1.0761,0,0,0,0,0,0,1.0932,1.093,1.0892,1.0892,1.0932,1.0927,1.0927,1.0916,1.0916,1.0918,1.0934,1.0939,1.0921,1.0919,1.0915,1.0843,1.0915,1.0913,1.0911,1.0765,1.0763,1.076,0,0,0,0,0,0,1.0933,1.0928,1.0892,1.0912,1.0909,1.0924,1.0911,1.0915,1.0907,1.0917,1.092,1.0924,1.0923,1.0919,1.0878,1.0844,1.0912,1.0909,1.0768,1.0765,1.0761,1.0699,0,0,0,0,0,0,1.0934,1.0928,1.0906,1.0911,1.0907,1.0856,1.0909,1.0913,1.0904,1.0909,1.0908,1.0909,1.0924,1.0882,1.0875,1.0841,1.0907,1.0771,1.0767,1.0762,1.0704,1.0694,1.0685,0,0,0,0,0,1.0936,1.0887,1.0904,1.09,1.088,1.0854,1.0852,1.0872,1.0901,1.0878,1.0884,1.0909,1.0849,1.0877,1.087,1.0835,1.0773,1.0768,1.0763,1.0709,1.0696,1.0686,0,0,0,0,0,0,1.0874,1.0888,1.0908,1.086,1.0856,1.0863,1.0835,1.0858,1.0844,1.085,1.0874,1.0873,1.0827,1.0827,1.0858,1.0776,1.0816,1.0809,1.0777,1.0765,1.0756,1.0756,1.0905,0,0,0,0,0,1.0856,1.0835,1.0848,1.0804,1.0802,1.0819,1.0808,1.0825,1.0821,1.0818,1.0822,1.0815,1.0795,1.078,1.0762,1.0706,1.0706,1.0678,1.0669,1.0661,1.0653,1.0623,1.0611,1.0742,1.0742,1.0742,0,0,1.0816,1.0821,1.0806,1.0792,1.0791,1.0768,1.0817,1.079,1.0772,1.0814,1.0775,1.0778,1.0772,1.0723,1.0702,1.0722,1.0618,1.0654,1.0647,1.0644,1.0617,1.0604,1.0593,1.0739,1.0739,1.074,0,0,1.0731,1.0734,1.0698,1.0697,1.0696,1.0708,1.0699,1.0704,1.0708,1.0671,1.0701,1.068,1.0645,1.064,1.0632,1.0548,1.057,1.0542,1.049,1.046,1.045,1.0441,1.041,1.0398,1.0535,1.0535,1.0535,0,1.0681,1.0649,1.0676,1.0647,1.064,1.068,1.0643,1.0639,1.0631,1.0624,1.0648,1.0605,1.0604,1.0555,1.0534,1.0528,1.0517,1.054,1.045,1.0441,1.0433,1.0403,1.0392,1.0531,1.0532,1.0532,1.0532,0,1.0587,1.0564,1.0535,1.0529,1.0519,1.0486,1.0506,1.0492,1.051,1.052,1.0481,1.0482,1.0465,1.0455,1.0471,1.0407,1.042,1.0446,1.0486,1.0416,1.0389,1.0378,1.0526,1.0527,1.0528,1.0529,0,0,1.046,1.0472,1.046,1.0458,1.0461,1.0443,1.0413,1.0399,1.0385,1.0379,1.0353,1.0323,1.0349,1.034,1.0356,1.0331,1.0263,1.0361,1.0361,1.0341,1.0192,1.0171,1.0157,1.028,1.0278,1.0276,1.0192,0,1.0376,1.0326,1.035,1.0296,1.0275,1.0314,1.0287,1.0285,1.0293,1.0275,1.0284,1.0262,1.0298,1.0293,1.027,1.0276,1.0233,1.0283,1.0253,1.0251,1.0251,1.0143,1.012,1.0041,1.0182,1.018,1.0179,0,1.0271,1.0264,1.0208,1.0216,1.0208,1.0184,1.0173,1.0156,1.0155,1.0163,1.0155,1.0177,1.0146,1.0189,1.0145,1.0178,1.0168,1.017,1.0167,1.0163,1.0209,1.0134,1.0016,1.0004,1.0162,1.0164,1.0165,0,1.0183,1.0158,1.0122,1.012,1.0128,1.011,1.0112,1.0114,1.0104,1.0094,1.0088,1.0074,1.0066,1.0054,1.0072,1.0101,1.0025,1.0069,1.0029,1.0028,1.0009,1.0009,0.9885,1.0005,1.0006,1.0006,1.0006,0,1.0086,1.005,1.0083,1.006,1.0021,1.0049,1.0009,1.0015,1.0016,0.9995,1.0027,1.0006,1.0032,1.0012,1.0026,0.9987,0.9984,0.9988,0.9991,0.9984,0.9983,0.9975,0.998,1.0003,1.0003,1.0004,1.0005,0,0.9979,1.0,0.9963,0.9975,0.9978,0.9948,0.9958,0.9936,0.9949,0.9921,0.9916,0.9933,0.9912,0.993,0.9909,0.9918,0.9867,0.9879,0.9868,0.987,0.9829,0.9832,0.9693,0.9676,0.9809,0.9808,0.9807,0,0.9914,0.9888,0.9899,0.9888,0.9889,0.987,0.9862,0.9889,0.9878,0.9875,0.9854,0.9837,0.9824,0.9788,0.9798,0.9782,0.9793,0.9746,0.979,0.9784,0.979,0.9791,0.9788,0.9736,0.9734,0.9733,0.9732,0,0.9797,0.981,0.9797,0.9788,0.9777,0.977,0.9766,0.9755,0.9783,0.9769,0.9749,0.974,0.972,0.9701,0.969,0.969,0.9714,0.9719,0.9708,0.9699,0.9692,0.9694,0.9841,0.9721,0.9722,0.9723,0.9723,0.9724,0.9708,0.9687,0.9692,0.9676,0.9677,0.9673,0.9654,0.9665,0.965,0.9637,0.9654,0.963,0.963,0.9616,0.9614,0.9595,0.9614,0.9599,0.9595,0.959,0.9584,0.9698,0.9593,0.9593,0.9593,0.9594,0.9594,0,0.9592,0.9597,0.9583,0.9578,0.9566,0.9594,0.9592,0.9579,0.9558,0.9557,0.9545,0.9522,0.9505,0.9515,0.95,0.9482,0.9493,0.9477,0.9477,0.9477,0.9568,0.9578,0.9468,0.9468,0.9468,0.9468,0.9468,0.9468,0.9529,0.9495,0.9508,0.9473,0.9479,0.9457,0.9453,0.9449,0.9449,0.9423,0.941,0.9418,0.9421,0.9407,0.9392,0.9395,0.9387,0.9367,0.9374,0.9458,0.947,0.9482,0.9491,0.9365,0.9365,0.9284,0.9283,0.9283]}]]